Regional Weather Roundup
Issued by NWS

Home | Current Version | Previous Version | Text Only | Print | Product List | Glossary On
Versions: 1 2 3 4 5 6 7 8 9 10 11 12 13 14 15 16 17 18 19 20 21 22 23 24 25 26 27 28 29 30 31 32 33 34 35 36 37 38 39 40 41 42 43 44 45 46 47 48 49 50
777
ASUS44 KOUN 010100
RWROK

WEATHER ROUNDUP FOR OKLAHOMA
NATIONAL WEATHER SERVICE NORMAN OK
800 PM CDT SAT APR 30 2016

NOTE: "FAIR" INDICATES FEW OR NO CLOUDS BELOW 12,000 FEET WITH NO
      SIGNIFICANT WEATHER AND/OR OBSTRUCTIONS TO VISIBILITY.

OKZ001>007-009>012-014-015-017-010200-
NORTHWEST OKLAHOMA AND THE PANHANDLE

CITY           SKY/WX    TMP DP  RH WIND       PRES   REMARKS
GAGE           MOCLDY    59  39  47 NW14      29.90R
GUYMON         CLOUDY    51  34  52 NW16      29.94R
ENID/WOODRING  CLEAR     61  45  55 NW9       29.85R
$$

OKZ016-021>023-033>039-044-045-010200-
SOUTHWEST OKLAHOMA

CITY           SKY/WX    TMP DP  RH WIND       PRES   REMARKS
LAWTON/REGL    CLEAR     67  49  52 N5        29.84R
FREDERICK      CLEAR     68  50  52 N5        29.81R
CLINTON        CLEAR     61  44  53 NW10      29.89R
HOBART         CLEAR     64  46  52 N9        29.86R
$$

OKZ018>020-024>031-010200-
CENTRAL OKLAHOMA

CITY           SKY/WX    TMP DP  RH WIND       PRES   REMARKS
OKLAHOMA CITY  CLEAR     65  45  48 N14       29.84R
OKC/WILEY POST CLEAR     65  44  46 N13       29.85R
STILLWATER     CLEAR     61  45  55 NW8       29.84R
GUTHRIE        CLEAR     63  44  50 VRB5      29.85R
$$

OKZ008-013-054>072-010200-
NORTHEAST OKLAHOMA

CITY           SKY/WX    TMP DP  RH WIND       PRES   REMARKS
TULSA          PTCLDY    64  51  62 NW6       29.81R
TULSA/JONES    CLEAR     66  49  54 N5        29.82R
PONCA CITY     CLEAR     61  44  53 NW6       29.84R
BARTLESVILLE   CLEAR     62  45  53 W5        29.83R
MUSKOGEE       CLEAR     64  54  69 NW3       29.82R
$$

OKZ032-040>043-046>053-073>077-010200-
SOUTH CENTRAL/SOUTHEAST OKLAHOMA

CITY           SKY/WX    TMP DP  RH WIND       PRES   REMARKS
MCALESTER      MOCLDY    68  62  81 CALM      29.82R
$$





USA.gov is the U.S. government's official web portal to all federal, state and local government web resources and services.